Regional Weather Roundup
Issued by NWS

Home | Current Version | Previous Version | Text Only | Print | Product List | Glossary On
Versions: 1 2 3 4 5 6 7 8 9 10 11 12 13 14 15 16 17 18 19 20 21 22 23 24 25 26 27 28 29 30 31 32 33 34 35 36 37 38 39 40 41 42 43 44 45 46 47 48 49 50
502
ASUS43 KMKX 181259
RWRWI

WISCONSIN REGIONAL WEATHER ROUNDUP
NATIONAL WEATHER SERVICE MILWAUKEE/SULLIVAN WI
700 AM CST MON DEC 18 2017

NOTE: "FAIR" INDICATES FEW OR NO CLOUDS BELOW 12,000 FEET WITH NO
SIGNIFICANT WEATHER AND/OR OBSTRUCTIONS TO VISIBILITY.

WIZ001-002-006>008-014>016-023>028-181400-
NORTHWEST WISCONSIN

CITY           SKY/WX    TMP DP  RH WIND       PRES   REMARKS
SUPERIOR ARPT  CLOUDY    25  22  89 SW5       29.75F FOG     WCI  19
ASHLAND        CLOUDY    27  24  89 S8        29.77F FOG     WCI  19
HAYWARD        CLOUDY    26  23  88 S10       29.78F FOG     WCI  16
SIREN          CLOUDY    25  24  95 S5        29.79S FOG     WCI  19
CUMBERLAND     CLOUDY    25  23  93 S6        29.80F FOG     WCI  18
RICE LAKE      CLOUDY    26  26  99 CALM      29.83F FOG
CHETEK         CLOUDY    26  25  98 S5        29.83F WCI  20
LADYSMITH      FOG       26  26  97 S7        29.83S VSB 1   WCI  19
EAU CLAIRE     NOT AVBL
MENOMONIE      CLOUDY    29  28  94 S6        29.84S FOG     WCI  23
NEW RICHMOND   CLOUDY    25  25  99 S7        29.82S FOG     WCI  18
OSCEOLA        CLOUDY    26  26 100 S7        29.84S FOG     WCI  19
$$

WIZ003>005-009-010-017-018-181400-
NORTH CENTRAL WISCONSIN

CITY           SKY/WX    TMP DP  RH WIND       PRES   REMARKS
MANITOWISH WTR CLOUDY    24  24 100 SW7       29.76F FOG     WCI  16
ARBOR VITAE    CLOUDY    27  25  95 SW5       29.77S FOG     WCI  21
WOODRUFF       CLOUDY    27  25  95 SW5       29.77S FOG     WCI  21
RHINELANDER    CLOUDY    25  25 100 SW9       29.78S FOG     WCI  15
EAGLE RIVER    CLOUDY    25  25 100 SW6       29.77R FOG     WCI  18
LAND O LAKES   CLOUDY    26  25  99 SW3       29.77S FOG
PHILLIPS       CLOUDY    25  25 100 SW9       29.79S FOG     WCI  15
TOMAHAWK       CLOUDY    25  24  96 CALM      29.80S FOG
MEDFORD        FOG       25  24  96 SW7       29.80F VSB 1/2 WCI  17
MERRILL        CLOUDY    26  26 100 W6        29.82S FOG     WCI  20
$$

WIZ029-030-035-036-043>047-181400-
CENTRAL WISCONSIN

CITY           SKY/WX    TMP DP  RH WIND       PRES   REMARKS
WAUSAU         CLOUDY    26  26 100 W6        29.81R FOG     WCI  19
MOSINEE        CLOUDY    27  27 100 W6        29.83F FOG     WCI  20
MARSHFIELD     FOG       28  27  96 SW7       29.82S VSB 1/4 WCI  21
STEVENS POINT  CLOUDY    27  27 100 SW5       29.84F FOG     WCI  21
WAUPACA        CLOUDY    31  29  92 SW5       29.86S FOG     WCI  26
WAUTOMA        CLOUDY    30  28  92 W8        29.87  FOG     WCI  22
WISC RAPIDS    CLOUDY    28  27  96 W8        29.87R FOG     WCI  20
CAMP DOUGLAS   NOT AVBL
$$

WIZ011>013-019>022-031-037>040-048>050-181400-
NORTHEAST WISCONSIN

CITY           SKY/WX    TMP DP  RH WIND       PRES   REMARKS
ANTIGO         FOG       25  25 100 W6        29.80S VSB 1/2 WCI  18
SHAWANO        CLOUDY    30  28  94 W3        29.84S FOG
OCONTO         CLOUDY    28  27  96 W5        29.84F WCI  22
STURGEON BAY   CLOUDY    28  27  96 SW8       29.84F FOG     WCI  20
GREEN BAY      CLOUDY    30  27  88 SW7       29.85F FOG     WCI  23
MANITOWOC      CLOUDY    31  29  92 W5        29.86F FOG     WCI  26
APPLETON       CLOUDY    30  28  93 SW7       29.83F FOG     WCI  23
CLINTONVILLE   NOT AVBL
OSHKOSH        FOG       31  30  96 SW6       29.86F VSB 1/2 WCI  25
$$

WIZ032>034-041-042-053>061-181400-
SOUTHWEST WISCONSIN

CITY           SKY/WX    TMP DP  RH WIND       PRES   REMARKS
LA CROSSE      CLOUDY    32  29  88 SW7       29.89S FOG     WCI  26
SPARTA         CLOUDY    29  28  99 SW3       29.89R FOG
VIROQUA        CLOUDY    30  30 100 CALM      29.87R
BOSCOBEL       CLOUDY    34  29  82 SW5       29.92R WCI  30
PRAIRIE DU CHI CLOUDY    32  27  81 W6        29.92R WCI  26
PLATTEVILLE    CLOUDY    32  32 100 SW8       29.91R WCI  25
$$

WIZ056-057-062-063-064-067-068-181400-
SOUTH CENTRAL WISCONSIN

CITY           SKY/WX    TMP DP  RH WIND       PRES   REMARKS
REEDSBURG      CLOUDY    31  31  99 SW7       29.87S FOG     WCI  25
BARABOO/DELLS  CLOUDY    31  29  93 W7        29.87S FOG     WCI  24
LONE ROCK      NOT AVBL
MINERAL POINT  CLOUDY    34  34 100 W7        29.89S FOG     WCI  28
MADISON        CLOUDY    33  31  92 VRB3      29.89S FOG
MIDDLETON      CLOUDY    34  33  98 W7        29.89S WCI  28
WATERTOWN      FOG       32  32 100 SW3       29.88S VSB 1/2
MONROE         CLOUDY    34  34 100 W14       29.90R FOG     WCI  24
JANESVILLE     CLOUDY    37  37 100 W8        29.90R FOG     WCI  31
$$

WIZ051-052-058>065-066-070>072-181400-
SOUTHEAST WISCONSIN

CITY           SKY/WX    TMP DP  RH WIND       PRES   REMARKS
MILWAUKEE      CLOUDY    36  35  96 SW3       29.89F FOG
WAUKESHA       FOG       32  32 100 CALM      29.89F VSB 3/4
MILWAUKEE/TIMM CLOUDY    32  32 100 SW3       29.89S FOG
RACINE         CLOUDY    37  36  96 W5        29.91S FOG     WCI  33
BURLINGTON     CLOUDY    49  49 100 SW6       29.89F FOG
KENOSHA        CLOUDY    39  37  92 SW12      29.89F FOG     WCI  32
FOND DU LAC    CLOUDY    31  29  92 SW5       29.86F FOG     WCI  26
SHEBOYGAN      CLOUDY    30  30 100 S3        29.86F FOG
WEST BEND      CLOUDY    32  32 100 CALM      29.87S FOG
JUNEAU         FOG       31  31  99 SW3       29.89R VSB 1/4
$$

LSZ147-162-181400-
LAKE SUPERIOR

STATION/POSITION TIME  TEMP    WIND        PRES    WAVE
                       AIR SEA DIR/SP/G            HT/PER
                 (UTC) (F)     (DEG/KT/KT) (MB)    (FT/S)
DEVILS ISLAND    1200   28     220/ 13/ 15 1008.7F
SAXON HARBOR     1240   29                 1008.1F
$$

LMZ867-665-643>646-181400-
LAKE MICHIGAN

STATION/POSITION TIME  TEMP    WIND        PRES    WAVE
                       AIR SEA DIR/SP/G            HT/PER
                 (UTC) (F)     (DEG/KT/KT) (MB)    (FT/S)
NORTHPORT PIER   1240   29      CALM  /  3 1010.5F
KEWAUNEE LAKESHO 1230   29     230/  4/  6 1010.5F
SHEBOYGAN LAKESH 1200   31     190/  3/  3 1012.3F
PORT WASHINGTON  1240   33     210/  2/  4 1013.2S
MILWAUKEE LAKESH 1230   35     210/  5/  6   N/A
KENOSHA   LAKESH 1200   40     250/ 10/ 12 1012.9
$$

TC  - TEMPERATURE IN CELSIUS
VSB - VISIBILITY IN STATUTE MILES
WCI - WIND CHILL INDEX
HX  - HEAT INDEX





USA.gov is the U.S. government's official web portal to all federal, state and local government web resources and services.